Location: ????????
(55.6189°N, 38.3031°E)
Time: 02:52:32
(UTC+00:00)

SL-16 R/B - Pass Details

Date: 28 February 2020
Orbit: 843 x 847 km, 71.0° (Epoch: 04 April)

Event Time Altitude Azimuth Distance (km) Brightness Sun altitude
Exits shadow 00:30:45 55° 24° (NNE) 1,016 2.7 -31.9°
Drops below altitude 10° 00:35:09 10° 34° (NNE) 2,477 5.4 -31.4°
Sets 00:37:36 0° 35° (NE) 3,415 6.4 -31.1°
